Regional Weather Roundup
Issued by NWS

Home | Current Version | Previous Version | Graphics & Text | Print | Product List | Glossary On
Versions: 1 2 3 4 5 6 7 8 9 10 11 12 13 14 15 16 17 18 19 20 21 22 23 24 25 26 27 28 29 30 31 32 33 34 35 36 37 38 39 40 41 42 43 44 45 46 47 48 49 50
000
ASUS43 KLOT 080100
RWRIL

ILLINOIS REGIONAL WEATHER ROUNDUP
NATIONAL WEATHER SERVICE CHICAGO/ROMEOVILLE IL
800 PM CDT TUE JUL 07 2015

NOTE: "FAIR" INDICATES FEW OR NO CLOUDS BELOW 12,000 FEET WITH NO
SIGNIFICANT WEATHER AND/OR OBSTRUCTIONS TO VISIBILITY.

* THESE STATIONS ARE NOT UNDER NWS QUALITY CONTROL. THEY ALSO MAY NOT
  REPORT WEATHER SUCH AS PRECIPITATION OR FOG.

ILZ001-002-007-009-015-016-024-080200-
NORTHWEST ILLINOIS

CITY           SKY/WX    TMP DP  RH WIND       PRES   REMARKS
MOLINE         MOCLDY    70  54  56 N6        30.05S
STERLING*      CLOUDY    68  55  64 NE3       30.06S
$$

ILZ003-004-008-010-011-017-018-080200-
NORTH CENTRAL ILLINOIS

CITY           SKY/WX    TMP DP  RH WIND       PRES   REMARKS
ROCKFORD       MOCLDY    67  51  56 NE9       30.08R
$$

ILZ005-006-012>014-019>023-080200-
NORTHEAST ILLINOIS

CITY           SKY/WX    TMP DP  RH WIND       PRES   REMARKS
CHICAGO-OHARE  PTCLDY    61  46  57 NE13      30.08R
CHICAGO-MIDWAY PTCLDY    63  46  54 N12       30.07S
AURORA         PTCLDY    63  50  62 E7        30.07S
WAUKEGAN       CLEAR     57  48  72 N6        30.09R
DUPAGE AIRPORT CLEAR     61  48  62 NE10      30.07S
WHEELING       CLEAR     59  45  59 NE9       30.10R
NORTHERLY ISL    N/A     59  48  67 N12         N/A
$$

LMZ740>746-080200-
SOUTHERN LAKE MICHIGAN

STATION/POSITION SKY/WX   TEMP    WIND        PRES    VSBY  WAVE
                          AIR SEA DIR/SP/G                  HT/PER
                          (F)     (DEG/KT/KT) (MB)    (MI)  (FT/S)
HARRISON CRIB              58      10/ 12/ 14   N/A
BURNHAM HARBOR             60      20/ 11/ 12   N/A
CALUMET HARBOR             61     360/  9/ 14   N/A
BURNS HARBOR               62      30/ 20/ 25 1017.9S
MICHIGAN CITY              62     350/ 24/ 27   N/A
MICHIGAN CITY 6N           62 65   20/ 19/ 25   N/A           8/ 7
ST. JOSEPH                 61 62   50/ 21/ 25   N/A           8/ 2
$$

ILZ025>027-034>036-040-047-049-050-058-095>099-080200-
WEST-CENTRAL ILLINOIS

CITY           SKY/WX    TMP DP  RH WIND       PRES   REMARKS
QUINCY         MOCLDY    70  61  73 E5        30.04R HAZE
$$

ILZ028>032-037-038-041>044-048-051>054-059>061-080200-
CENTRAL ILLINOIS

CITY           SKY/WX    TMP DP  RH WIND       PRES   REMARKS
DECATUR        CLOUDY    66  55  67 E10       30.04R
PEORIA         MOCLDY    70  59  68 NE5       30.04R HAZE
SPRINGFIELD    MOCLDY    70  61  73 NE5       30.04R
TAYLORVILLE    NOT AVBL
$$

ILZ033-039-045-046-055>057-062-063-080200-
EAST-CENTRAL ILLINOIS

CITY           SKY/WX    TMP DP  RH WIND       PRES   REMARKS
CHAMPAIGN      PTCLDY    64  53  67 NE8       30.05R
MATTOON        MOCLDY    65  56  72 NE7       30.03R
$$

ILZ079-100>102-080200-
SOUTHWEST ILLINOIS

CITY           SKY/WX    TMP DP  RH WIND       PRES   REMARKS
ALTON          CLOUDY    66 N/A N/A NE6       30.03R
BELLEVILLE     MOCLDY    67  66  99 NE9       30.01R
CAHOKIA*       CLOUDY    67  63  87 NE8       30.03R
$$

ILZ064>066-069>071-074>076-080>082-084>086-088>090-092>094-080200-
SOUTH-CENTRAL ILLINOIS

CITY           SKY/WX    TMP DP  RH WIND       PRES   REMARKS
CARBONDALE     LGT RAIN  73  70  90 N9        29.99R
MT. VERNON     CLOUDY    66  61  82 N7        30.02R
$$

ILZ067-068-072-073-078-083-087-091-080200-
SOUTHEAST ILLINOIS

CITY           SKY/WX    TMP DP  RH WIND       PRES   REMARKS
LAWRENCEVILLE  CLOUDY    67  67 100 N8        30.00R FOG
$$

ABBREVIATIONS USED IN REMARKS
   TC - TEMPERATURE IN CELSIUS
  WCI - WIND CHILL INDEX
   HX - HEAT INDEX
  VSB - VISIBILITY
$$




USA.gov is the U.S. government's official web portal to all federal, state and local government web resources and services.